[[{"header":{"parameterUnit":"m.s-1","parameterCategory":1,"la1":30.2991,"la2":30.254,"lo1":-89.0895,"lo2":-89.0444,"dy":0.0017,"dx":0.0017,"nx":28,"ny":28,"refTime":"2024-06-09T09:00:00:Z","depth":0,"parameterNumber":2,"parameterNumberName":"U-component_of_WINDS"},"data":[0,0,0,0,0,0,0,0,0,0,0,0,0,0,0,0,0,0,0,0,0,0,0,0,0,0,0,0,0,0,0,0,0,0,0,0,0,0,0,0,0,0,0,0,0,0,0,0,0,0,0,0,0,0,0,0,0,0,2.7057,2.7059,0,2.7203,2.7204,2.7206,2.7209,2.7207,2.7205,2.7204,2.7353,2.7358,2.7364,0,0,0,0,0,0,0,0,0,0,0,0,0,2.6781,2.6786,2.7057,2.7059,2.7061,2.7202,2.7204,2.7206,2.7209,2.7207,2.7205,2.7203,2.7351,2.7358,2.7364,0,0,0,0,0,0,0,0,0,0,0,0,0,2.6911,2.6788,2.7057,2.7079,2.7083,2.7202,2.7204,2.7207,2.721,2.7207,2.7204,2.7202,2.7349,2.7357,2.7365,2.7472,0,0,2.7391,2.7395,0,0,0,0,0,0,0,0,2.6904,2.6922,2.7074,2.7078,2.7082,2.7185,2.7162,2.7296,2.7211,2.7162,2.7204,2.7201,2.7299,2.7311,2.7345,2.7479,2.7485,2.7392,2.7397,2.7401,2.7403,0,0,0,0,0,0,0,2.6895,2.6915,2.7115,2.7076,2.7081,2.7082,2.7097,2.7187,2.7244,2.7166,2.7166,2.7183,2.7301,2.7337,2.7348,2.7487,2.7392,2.7399,2.7404,2.7408,2.7714,2.7717,0,0,0,0,0,0,2.6882,2.6908,2.711,2.7119,2.6985,2.7089,2.7106,2.7155,2.7243,2.7254,2.7186,2.7183,2.7323,2.7338,2.7353,2.7482,2.7401,2.7409,2.7413,2.7711,2.7714,2.7718,0,0,0,0,0,0,2.6876,2.69,2.7104,2.7014,2.704,2.7097,2.7151,2.7159,2.7195,2.7258,2.7268,2.7212,2.7322,2.7342,2.7442,2.7487,2.7412,2.742,2.7707,2.7712,2.7716,2.774,0,0,0,0,0,0,2.6868,2.6897,2.6938,2.7015,2.7045,2.719,2.7154,2.7164,2.7209,2.7207,2.7285,2.7295,2.7321,2.7429,2.745,2.7497,2.7427,2.7703,2.7709,2.7715,2.7736,2.7745,2.7753,0,0,0,0,0,2.6858,2.694,2.6941,2.6965,2.7097,2.7193,2.721,2.7238,2.7213,2.7254,2.7295,2.7293,2.7479,2.7439,2.7463,2.7513,2.77,2.7708,2.7714,2.7732,2.7743,2.7753,0,0,0,0,0,0,2.6868,2.695,2.6952,2.7061,2.712,2.7193,2.7246,2.725,2.7317,2.7312,2.7344,2.7362,2.7461,2.7498,2.7452,2.762,2.7587,2.7599,2.7592,2.7604,2.7612,2.76,2.7434,0,0,0,0,0,2.6883,2.6954,2.7022,2.7112,2.7141,2.7189,2.7231,2.7248,2.731,2.7335,2.7383,2.7443,2.7515,2.7562,2.7632,2.7742,2.7758,2.7788,2.7797,2.7804,2.7813,2.7872,2.7886,2.774,2.774,2.774,0,0,2.6914,2.6968,2.7011,2.7115,2.7162,2.7234,2.7209,2.7287,2.7341,2.7347,2.7443,2.7481,2.7551,2.7655,2.7704,2.7689,2.7857,2.7813,2.7818,2.7823,2.788,2.7894,2.7906,2.7745,2.7744,2.7743,0,0,2.7007,2.7056,2.7135,2.7183,2.7255,2.7286,2.7305,2.7379,2.7403,2.7501,2.7507,2.7571,2.7695,2.7744,2.7785,2.7897,2.7896,2.7919,2.7964,2.8021,2.8032,2.8042,2.808,2.8093,2.7928,2.7928,2.7928,0,2.7036,2.7145,2.7175,2.7253,2.7298,2.7307,2.7387,2.7432,2.7523,2.7554,2.7536,2.7691,2.7739,2.7854,2.7881,2.7915,2.7936,2.7909,2.8028,2.8039,2.8049,2.8085,2.8099,2.793,2.793,2.793,2.793,0,2.7177,2.7252,2.7308,2.7395,2.7447,2.7525,2.7566,2.7615,2.7628,2.766,2.7759,2.7817,2.7898,2.7927,2.794,2.8044,2.8032,2.8021,2.7988,2.8064,2.8098,2.8112,2.7933,2.7932,2.7932,2.7931,0,0,2.7278,2.7381,2.7401,2.744,2.7521,2.7579,2.7658,2.7737,2.7777,2.7841,2.7906,2.8011,2.8,2.8047,2.8066,2.8117,2.8198,2.8099,2.8101,2.8113,2.8314,2.8319,2.8335,2.82,2.8203,2.8205,2.8307,0,2.7378,2.7517,2.7546,2.7666,2.7735,2.7746,2.7814,2.7871,2.7904,2.7967,2.8004,2.8076,2.8059,2.8087,2.8137,2.8178,2.8239,2.8171,2.8259,2.8262,2.8239,2.8353,2.836,2.8453,2.8321,2.8323,2.8325,0,2.7512,2.7577,2.7704,2.7775,2.7805,2.7866,2.794,2.8001,2.8065,2.8086,2.8138,2.8151,2.8233,2.8197,2.8309,2.8262,2.8301,2.8326,2.833,2.8337,2.8296,2.8361,2.8484,2.8497,2.8347,2.8345,2.8344,0,2.7569,2.769,2.7781,2.7815,2.79,2.7942,2.798,2.8041,2.8087,2.8152,2.8181,2.8255,2.8295,2.8352,2.8385,2.8357,2.8493,2.8461,2.8511,2.851,2.8537,2.8534,2.8665,2.8567,2.8566,2.8566,2.8566,0,2.7676,2.7752,2.7808,2.7863,2.7949,2.7983,2.8067,2.8104,2.8159,2.8221,2.8236,2.8294,2.8336,2.84,2.8427,2.8513,2.8532,2.855,2.8556,2.8547,2.8544,2.857,2.8564,2.857,2.8569,2.8568,2.8568,0,2.7753,2.7794,2.7893,2.7966,2.7986,2.8046,2.8108,2.8162,2.8196,2.8275,2.8295,2.8348,2.8424,2.8464,2.8559,2.8577,2.8674,2.8677,2.8652,2.8653,2.87,2.8694,2.885,2.8871,2.8761,2.8762,2.8762,0,2.7816,2.7875,2.7954,2.7997,2.8036,2.8105,2.8151,2.8187,2.8234,2.8312,2.8356,2.8434,2.8496,2.8618,2.8664,2.8737,2.874,2.879,2.8751,2.874,2.8738,2.8733,2.8738,2.8796,2.8797,2.8798,2.8798,0,2.7924,2.7941,2.8007,2.808,2.8135,2.8195,2.8253,2.8288,2.8333,2.8385,2.8463,2.8512,2.861,2.8685,2.8761,2.8799,2.8806,2.8811,2.8825,2.8816,2.8797,2.8805,2.8667,2.8806,2.8805,2.8805,2.8804,2.8804,2.7994,2.8046,2.811,2.8183,2.8231,2.8286,2.8339,2.838,2.8446,2.8527,2.8545,2.8627,2.8689,2.8792,2.8833,2.8897,2.8886,2.8909,2.8914,2.8918,2.8919,2.879,2.8912,2.8911,2.8911,2.8911,2.8911,0,2.81,2.8141,2.8209,2.829,2.8347,2.835,2.8415,2.8462,2.8534,2.8592,2.8654,2.8743,2.8817,2.8869,2.8944,2.8985,2.899,2.9003,2.8999,2.9007,2.8925,2.8903,2.8998,2.8998,2.8998,2.8998,2.8998,2.8998,2.8161,2.8249,2.8274,2.8386,2.8427,2.8507,2.8544,2.8594,2.864,2.8739,2.88,2.8834,2.889,2.8969,2.9036,2.905,2.9075,2.9088,2.9101,2.9023,2.9013,2.9004,2.8984,2.9094,2.9094,2.9178,2.9179,2.9179]},{"header":{"parameterUnit":"m.s-1","parameterCategory":1,"la1":30.2991,"la2":30.254,"lo1":-89.0895,"lo2":-89.0444,"dy":0.0017,"dx":0.0017,"nx":28,"ny":28,"refTime":"2024-06-09T09:00:00:Z","depth":0,"parameterNumber":3,"parameterNumberName":"V-component_of_WINDS"},"data":[0,0,0,0,0,0,0,0,0,0,0,0,0,0,0,0,0,0,0,0,0,0,0,0,0,0,0,0,0,0,0,0,0,0,0,0,0,0,0,0,0,0,0,0,0,0,0,0,0,0,0,0,0,0,0,0,0,0,3.2959,3.2961,0,3.3201,3.3204,3.3207,3.3228,3.3226,3.3223,3.3221,3.3466,3.3474,3.3483,0,0,0,0,0,0,0,0,0,0,0,0,0,3.2508,3.2517,3.2958,3.2961,3.2965,3.3201,3.3204,3.3208,3.3229,3.3226,3.3222,3.322,3.3463,3.3473,3.3484,0,0,0,0,0,0,0,0,0,0,0,0,0,3.2723,3.2519,3.2958,3.3004,3.301,3.32,3.3204,3.3209,3.3229,3.3226,3.3222,3.3218,3.3459,3.3472,3.3485,3.3645,0,0,3.3526,3.3532,0,0,0,0,0,0,0,0,3.2711,3.2739,3.2994,3.3001,3.3008,3.3181,3.3136,3.3355,3.323,3.3146,3.3221,3.3216,3.3374,3.3394,3.3448,3.3657,3.3667,3.3527,3.3536,3.3541,3.3545,0,0,0,0,0,0,0,3.2696,3.2729,3.3054,3.2997,3.3006,3.3011,3.3037,3.3177,3.3278,3.3153,3.3155,3.3184,3.3377,3.3435,3.3454,3.3671,3.3527,3.3539,3.3547,3.3552,3.4023,3.4027,0,0,0,0,0,0,3.2673,3.2716,3.3047,3.3062,3.2847,3.3022,3.3051,3.3129,3.3277,3.3296,3.3187,3.3184,3.3414,3.3438,3.3462,3.366,3.3541,3.3554,3.3561,3.4018,3.4024,3.4028,0,0,0,0,0,0,3.2663,3.2702,3.3037,3.289,3.2933,3.3034,3.3121,3.3136,3.3194,3.3303,3.332,3.3228,3.3412,3.3444,3.36,3.3668,3.356,3.3572,3.4013,3.402,3.4026,3.4055,0,0,0,0,0,0,3.265,3.2698,3.2761,3.2891,3.2941,3.3172,3.3126,3.3144,3.3218,3.3216,3.3346,3.3364,3.3411,3.358,3.3613,3.3685,3.3582,3.4007,3.4016,3.4024,3.4048,3.4062,3.4073,0,0,0,0,0,3.2634,3.2759,3.2765,3.2804,3.3022,3.3176,3.3204,3.3257,3.3223,3.3287,3.3356,3.3359,3.3655,3.3596,3.3633,3.371,3.4003,3.4014,3.4023,3.4043,3.4059,3.4073,0,0,0,0,0,0,3.2634,3.2777,3.2785,3.2956,3.3054,3.3179,3.3261,3.3273,3.3382,3.3376,3.3436,3.3465,3.3619,3.368,3.3611,3.3872,3.3825,3.3843,3.3827,3.3844,3.3856,3.3838,3.3594,0,0,0,0,0,3.2654,3.2769,3.2887,3.3026,3.3075,3.316,3.3229,3.3261,3.3365,3.3406,3.3487,3.3586,3.3701,3.3775,3.3887,3.4057,3.4085,3.4128,3.414,3.415,3.4165,3.4259,3.4279,3.4061,3.4061,3.4061,0,0,3.2696,3.2789,3.2857,3.3029,3.3109,3.3225,3.3194,3.3318,3.3405,3.3424,3.3578,3.364,3.3754,3.3917,3.3993,3.3973,3.4231,3.4163,3.417,3.418,3.4271,3.4291,3.431,3.4068,3.4067,3.4066,0,0,3.2833,3.2915,3.304,3.3121,3.3242,3.3297,3.3327,3.3451,3.3494,3.3648,3.3665,3.3768,3.3965,3.4046,3.4112,3.4278,3.4285,3.4313,3.4378,3.4469,3.4486,3.4501,3.4561,3.4581,3.4327,3.4327,3.4327,0,3.2871,3.3048,3.3103,3.3227,3.3302,3.3325,3.3452,3.3526,3.3677,3.3728,3.3702,3.395,3.4029,3.4211,3.4252,3.4305,3.434,3.4299,3.4479,3.4495,3.4511,3.4568,3.459,3.433,3.433,3.4329,3.4329,0,3.3087,3.321,3.3296,3.3443,3.3527,3.3651,3.3724,3.3802,3.3826,3.3884,3.404,3.4135,3.4266,3.4312,3.4337,3.4498,3.4481,3.4467,3.4421,3.4533,3.4588,3.461,3.4334,3.4333,3.4332,3.4331,0,0,3.3232,3.3407,3.3438,3.3505,3.364,3.3735,3.3859,3.3989,3.4055,3.4157,3.4263,3.4429,3.4417,3.4492,3.4526,3.4605,3.4731,3.4582,3.4585,3.4606,3.4914,3.4924,3.4949,3.4736,3.474,3.4743,3.4904,0,3.3385,3.361,3.3662,3.3855,3.3968,3.3991,3.41,3.4193,3.425,3.4353,3.4414,3.4531,3.4505,3.4551,3.4631,3.4699,3.4793,3.4688,3.4834,3.4838,3.4806,3.4978,3.499,3.5137,3.4926,3.493,3.4932,0,3.3593,3.3702,3.3906,3.4026,3.4075,3.4172,3.4295,3.4393,3.4499,3.4534,3.4619,3.4644,3.4773,3.472,3.4899,3.4826,3.4888,3.493,3.4937,3.4954,3.4893,3.4999,3.5185,3.5208,3.4967,3.4964,3.4961,0,3.3679,3.3876,3.4024,3.408,3.4223,3.4291,3.4353,3.4455,3.453,3.4636,3.4685,3.4804,3.487,3.4961,3.5018,3.4974,3.5191,3.5143,3.5224,3.5222,3.527,3.5266,3.5469,3.5308,3.5308,3.5307,3.5307,0,3.3844,3.3968,3.4064,3.4155,3.4294,3.4352,3.4488,3.455,3.4641,3.4743,3.4769,3.4864,3.4933,3.5037,3.5082,3.5222,3.5251,3.5283,3.5294,3.5282,3.5278,3.5324,3.5316,3.5313,3.5312,3.5311,3.531,0,3.3964,3.4034,3.4196,3.4318,3.4352,3.4449,3.4553,3.4641,3.4697,3.4827,3.486,3.4948,3.5072,3.5137,3.5292,3.5322,3.548,3.5484,3.5445,3.5449,3.5527,3.5519,3.5768,3.5803,3.5617,3.5619,3.5621,0,3.4066,3.4162,3.4295,3.4366,3.443,3.4544,3.462,3.468,3.4758,3.4886,3.4958,3.5084,3.5188,3.5384,3.5461,3.5579,3.5587,3.5666,3.5605,3.5589,3.5589,3.5583,3.5593,3.5677,3.5678,3.568,3.5681,0,3.4238,3.4268,3.4378,3.45,3.459,3.4689,3.4786,3.4842,3.4918,3.5004,3.5132,3.5212,3.537,3.5494,3.5618,3.5681,3.5694,3.5699,3.5725,3.5714,3.5688,3.5704,3.5475,3.5694,3.5693,3.5692,3.5691,3.569,3.4353,3.444,3.4547,3.4668,3.4747,3.4838,3.4927,3.4994,3.5103,3.5237,3.5265,3.54,3.5502,3.567,3.5736,3.5841,3.5825,3.5861,3.5871,3.5879,3.5883,3.567,3.5864,3.5863,3.5863,3.5863,3.5863,0,3.4528,3.4598,3.4709,3.4845,3.494,3.4944,3.5052,3.5131,3.525,3.5344,3.5446,3.5593,3.5713,3.5799,3.5921,3.5989,3.5998,3.6019,3.6015,3.6029,3.589,3.5857,3.6009,3.6009,3.6009,3.6009,3.6009,3.6009,3.463,3.4777,3.4819,3.5005,3.5073,3.5207,3.5268,3.5351,3.5427,3.559,3.5691,3.5746,3.5837,3.5966,3.6076,3.6098,3.6142,3.6163,3.6186,3.6054,3.6039,3.6024,3.5993,3.6172,3.6172,3.6316,3.6318,3.6319]}]]